Regional Weather Roundup
Issued by NWS

Home | Current Version | Previous Version | Text Only | Print | Product List | Glossary Off
Versions: 1 2 3 4 5 6 7 8 9 10 11 12 13 14 15 16 17 18 19 20 21 22 23 24 25 26 27 28 29 30 31 32 33 34 35 36 37 38 39 40 41 42 43 44 45 46 47 48 49 50

000
ASUS43 KOAX 310702
RWRNE

WEATHER ROUNDUP FOR NEBRASKA
NATIONAL WEATHER SERVICE OMAHA NE
200 AM CDT SUN AUG 31 2014

NOTES: SATELLITE DATA IS BEING USED TO AUGMENT CLOUD COVER ABOVE
       12000 FEET.
       "FAIR" INDICATES FEW OR NO CLOUDS BELOW 12,000 FEET WITH NO
       SIGNIFICANT WEATHER AND/OR OBSTRUCTIONS TO VISIBILITY.

  * THESE STATIONS DO NOT REPORT WEATHER SUCH AS RAIN...SNOW OR FOG.

NEZ001>004-019>022-054>056-310800-
NEBRASKA PANHANDLE

CITY           SKY/WX    TMP DP  RH WIND       PRES   REMARKS
SCOTTSBLUFF    PTCLDY    59  52  77 CALM      29.87S
ALLIANCE       CLOUDY    61  53  75 W8        29.85R
CHADRON        PTCLDY    62  53  72 W7        29.82S
KIMBALL        MOCLDY    56  49  78 W8        29.91S
SIDNEY         CLOUDY    61  48  62 W5        29.89S
$$

NEZ057>060-069>072-079>082-310800-
SOUTHWEST NEBRASKA

CITY           SKY/WX    TMP DP  RH WIND       PRES   REMARKS
NORTH PLATTE   MOCLDY    66  58  75 CALM      29.84S
IMPERIAL       MOCLDY    71  56  58 NW5       29.84F
LEXINGTON      PTCLDY    72  59  63 S13G20    29.82F
MCCOOK         PTCLDY    71  55  56 S13       29.84R
OGALLALA       CLOUDY    68  55  63 CALM      29.82F
$$

NEZ005>010-023>029-035>040-094-310800-
NORTH CENTRAL NEBRASKA

CITY           SKY/WX    TMP DP  RH WIND       PRES   REMARKS
VALENTINE      CLOUDY    72  61  68 S13       29.74F
BROKEN BOW     PTCLDY    69  60  73 VRB5      29.83R
O`NEILL        PTCLDY    71  65  82 S9        29.78R
ORD            CLEAR     69  62  78 S8        29.79F
THEDFORD       CLOUDY    70  59  68 SW12      29.85R
$$

NEZ041-046>049-061>064-073>077-083>087-310800-
SOUTH CENTRAL NEBRASKA

CITY           SKY/WX    TMP DP  RH WIND       PRES   REMARKS
GRAND ISLAND   CLEAR     69  63  81 S10       29.82F
AURORA         CLEAR     69  64  84 S10       29.82F
HASTINGS       CLEAR     69  58  67 S8        29.83F
HEBRON         CLEAR     68  60  75 S5        29.83F
HOLDREGE       CLEAR     67  60  78 CALM      29.83S
KEARNEY *      CLEAR     68  61  77 S12       29.82F
$$

NEZ011>018-030>034-042>045-310800-
NORTHEAST NEBRASKA

CITY           SKY/WX    TMP DP  RH WIND       PRES   REMARKS
NORFOLK        CLEAR     69  63  81 SE8       29.81S
ALBION         CLEAR     66  62  87 SE6       29.82S
BLAIR          CLEAR     72  65  81 S10       29.84S
FREMONT        CLEAR     71  65  79 SE10      29.83F
TEKAMAH        CLEAR     66  64  93 SE5       29.83S
WAYNE          CLEAR     66  63  91 S7        29.81F
$$

NEZ050>053-065>068-078-088>093-310800-
SOUTHEAST NEBRASKA

CITY           SKY/WX    TMP DP  RH WIND       PRES   REMARKS
LINCOLN        CLEAR     69  64  84 S8        29.84F
OMAHA EPPLEY   CLEAR     71  65  81 S7        29.84F
BEATRICE       CLEAR     71  64  80 S8        29.85S
FALLS CITY     CLEAR     70  66  87 S7        29.86S
NEBRASKA CITY  CLEAR     68  68 100 S7        29.86S
PLATTSMOUTH    CLEAR     71  66  84 S10       29.85F
$$

NEZ044-045-051>053-067-310800-
OMAHA AREA

CITY           SKY/WX    TMP DP  RH WIND       PRES   REMARKS
OMAHA EPPLEY   CLEAR     71  65  81 S7        29.84F
BLAIR          CLEAR     72  65  81 S10       29.84S
FREMONT        CLEAR     71  65  79 SE10      29.83F
MILLARD        CLEAR     70  66  87 SE5       29.84S
OFFUTT AFB     CLEAR     66  66 100 E6        29.84F
PLATTSMOUTH    CLEAR     71  66  84 S10       29.85F
WAHOO          FAIR      67  64  89 SE5       29.83F
$$


USA.gov is the U.S. government's official web portal to all federal, state and local government web resources and services.